181P/Shoemaker-Levy 6 (2006)

Japanese version
Home page
Updated on February 12, 2007

---------------------------------------------------------------------

* Profile

Designation 181P/2006 U4
Recovery Date October 26, 2006
Magnitude 18.2 mag
Recoverer R. H. McNaught and D. M. Burton (Siding Spring)

* Pictures

* Orbital Elements

                    Epoch = 2006 Dec. 11.0 TT
     T = 2006 Nov. 25.0013 TT         Peri. = 333.5580
     e = 0.706643                     Node  =  37.8728  2000.0
     q = 1.127551 AU                  Incl. =  16.9267
       a =  3.843617 AU    n = 0.1307959    P =   7.535 years

* Finding Charts

* Magnitudes Graph

        m1 = 13 + 5 log d + 40 log r

---------------------------------------------------------------------

The orbital elements are calculated by Dr. Brian G. Marsden and printed on IAUC 8767.
The charts are made with StellaNavigator Ver.2.0 for Windows (AstroArts / ASCII).
The magnitudes graphs are made with Comet for Windows.

---------------------------------------------------------------------

Copyright(C) Seiichi Yoshida (comet@aerith.net). All rights reserved.